Torna al catalogo

COSMOS 2157

AttivoMilitarePO
NORAD 21728·PAYLOAD·🇷🇺 Russia

Lanciato Sep 28, 1991 da Plesetsk Cosmodrome

Loading…

Prossimi Passaggi (prossime 24 ore)

TLE

AggiornatoSource: Space-Track

Epoca: Sep 14, 2026, 10:36 UTC

1 21728U 91068A   26257.44217993  .00000000  00000-0 -56180-4 0  9990
2 21728  82.5737 260.7330 0003869 310.5329  49.5425 12.63252061611986

Traccia COSMOS 2157 in tempo reale con AllMySat

Download on the App Store